Location: Caltech
(34.1382°N, 118.1253°W)
Time: 22:07:56
(UTC-07:00)

Cosmos 1484 Rocket - Visible Passes

Search period start: 27 August 2016 00:00
Search period end: 06 September 2016 00:00
Orbit: 507 x 564 km, 97.4° (Epoch: 27 August)

Date Brightness Start Highest point End Pass type
(mag) Time Alt. Az. Time Alt. Az. Time Alt. Az.
27 Aug 5.1 19:50:09 10° SSW 19:53:19 26° W 19:56:30 10° NW visible
28 Aug 4.6 19:41:18 10° SSW 19:44:43 34° W 19:48:08 10° NNW visible
04 Sep 6.0 20:17:47 10° WSW 20:19:13 12° W 20:20:37 10° WNW visible
05 Sep 5.8 20:08:19 10° SW 20:10:33 15° W 20:12:48 10° WNW visible
